Sisseton, SD

4:37 PM CST on December 08, 2016 (GMT -0600)
Sisseton

Weather History for K8D3 - April, 2013

Change the Weather History Date:

Tuesday, April 9, 2013

  Actual Average Record
Temperature  
Mean Temperature 22 °F 41 °F  
Max Temperature 26 °F 53 °F 90 °F (1977)
Min Temperature 17 °F 30 °F 3 °F (1997)
Degree Days  
Heating Degree Days 43 24  
Month to date heating degree days 314 232  
Since 1 July heating degree days 8142 7574  
Cooling Degree Days 0 0  
Month to date cooling degree days 0 0  
Year to date cooling degree days 0 0  
Moisture  
Dew Point 15 °F    
Average Humidity 73    
Maximum Humidity 84    
Minimum Humidity 62    
Precipitation  
Precipitation 0.00 in 0.06 in 0.46 in (1969)
Month to date precipitation 0.07 0.41  
Year to date precipitation 3.42 2.39  
Snow  
Snow 0.00 in - - ()
Month to date snowfall 0.0  
Since 1 July snowfall 42.1  
Snow Depth -    
Sea Level Pressure  
Sea Level Pressure 30.31 in    
Wind  
Wind Speed 24 mph (NNE)    
Max Wind Speed 35 mph    
Max Gust Speed 41 mph    
T = Trace of Precipitation, MM = Missing Value Source: NWS Daily Summary

Daily Weather History Graph

Daily Weather History Graph

Search for Another Location

Airport or City:

Trip Planner

Search our weather history database for the weather conditions in past years. The results will help you decide how hot, cold, wet, or windy it might be!

Date:

Astronomy

Apr. 09, 2013 Rise Set
Actual Time 6:52 AM CDT 8:07 PM CDT
Civil Twilight 6:22 AM CDT 8:37 PM CDT
Nautical Twilight 5:45 AM CDT 9:14 PM CDT
Astronomical Twilight 5:06 AM CDT 9:53 PM CDT
Moon 6:17 AM CDT (4/9) 7:44 PM CDT (4/9)
Length of Visible Light 14h 15m
Length of Day
13h 14m
Waning Crescent, 1% of the Moon is Illuminated
Apr 9
Waning Crescent
Apr 10
New
Apr 18
First Quarter
Apr 25
Full
May 2
Last Quarter

Hourly Weather History & Observations

Time (CDT) Temp. Windchill Dew Point Humidity Pressure Visibility Wind Dir Wind Speed Gust Speed Precip Events Conditions
12:56 AM 21.9 °F 4.8 °F 17.1 °F 82% 30.20 in - NNE 26.5 mph 36.8 mph N/A   Unknown
1:56 AM 21.0 °F 3.9 °F 15.1 °F 78% 30.28 in - NNE 25.3 mph 33.4 mph N/A   Unknown
2:56 AM 19.9 °F 2.5 °F 14.0 °F 78% 30.28 in - NNE 25.3 mph - N/A   Unknown
3:56 AM 19.0 °F 0.6 °F 12.9 °F 77% 30.26 in - North 27.6 mph 36.8 mph N/A   Unknown
4:56 AM 19.0 °F 0.0 °F 10.9 °F 71% 30.27 in - NNE 29.9 mph 38.0 mph N/A   Unknown
5:56 AM 18.0 °F -0.5 °F 10.0 °F 71% 30.27 in - NNE 26.5 mph 35.7 mph N/A   Unknown
6:56 AM 18.0 °F -0.8 °F 10.0 °F 71% 30.31 in - NNE 27.6 mph 33.4 mph N/A   Unknown
7:56 AM 17.1 °F -1.4 °F 9.0 °F 71% 30.34 in - NNE 25.3 mph 32.2 mph N/A   Unknown
8:56 AM 17.1 °F -2.4 °F 8.1 °F 68% 30.36 in - NNE 28.8 mph 33.4 mph N/A   Unknown
9:56 AM 19.0 °F 1.3 °F 9.0 °F 65% 30.35 in - North 25.3 mph 32.2 mph N/A   Unknown
10:56 AM 19.0 °F 1.0 °F 10.9 °F 71% 30.36 in - North 26.5 mph 32.2 mph N/A   Unknown
11:56 AM 19.9 °F 3.2 °F 12.9 °F 74% 30.36 in - North 23.0 mph 31.1 mph N/A   Unknown
12:56 PM 19.9 °F 2.5 °F 14.0 °F 78% 30.35 in - North 25.3 mph 31.1 mph N/A   Unknown
1:56 PM 21.9 °F 5.1 °F 17.1 °F 82% 30.32 in - NNE 25.3 mph 32.2 mph N/A   Unknown
2:56 PM 24.1 °F 7.4 °F 18.0 °F 77% 30.30 in - NNE 27.6 mph 32.2 mph N/A   Unknown
3:56 PM 25.0 °F 9.5 °F 17.1 °F 72% 30.32 in - North 24.2 mph 32.2 mph N/A   Unknown
4:56 PM 25.0 °F 9.9 °F 18.0 °F 75% 30.33 in - NNE 23.0 mph 28.8 mph N/A   Unknown
5:56 PM 26.1 °F 10.7 °F 18.0 °F 71% 30.31 in - NNE 25.3 mph 34.5 mph N/A   Unknown
6:56 PM 26.1 °F 10.1 °F 18.0 °F 71% 30.28 in - NNE 27.6 mph 34.5 mph N/A   Unknown
7:56 PM 26.1 °F 11.3 °F 18.0 °F 71% 30.29 in - NNE 23.0 mph 28.8 mph N/A   Unknown
8:56 PM 26.1 °F 12.0 °F 18.0 °F 71% 30.32 in - NNE 20.7 mph - N/A   Unknown
9:56 PM 25.0 °F 11.3 °F 18.0 °F 75% 30.32 in - NNE 18.4 mph - N/A   Unknown
10:56 PM 25.0 °F 10.9 °F 18.0 °F 75% 30.35 in - NNE 19.6 mph - N/A   Unknown
11:56 PM 25.0 °F 12.6 °F 18.0 °F 75% 30.32 in - NNE 15.0 mph - N/A   Unknown